Weather History for KELY - September, 2011

Change the Weather History Date:

Thursday, September 29, 2011

  Actual Average Record
Temperature  
Mean Temperature 63 °F 51 °F  
Max Temperature 86 °F 70 °F 88 °F (2010)
Min Temperature 39 °F 33 °F 17 °F (1985)
Degree Days  
Heating Degree Days 2 14  
Month to date heating degree days 133 237  
Since 1 July heating degree days 137 301  
Cooling Degree Days 0 0  
Month to date cooling degree days 0 4  
Year to date cooling degree days 259 216  
Growing Degree Days 12 (Base 50)    
Moisture  
Dew Point 29 °F    
Average Humidity 36    
Maximum Humidity 60    
Minimum Humidity 12    
Precipitation  
Precipitation 0.00 in 0.03 in 0.72 in (1994)
Month to date precipitation 1.33 0.80  
Year to date precipitation 10.26 7.44  
Snow  
Snow 0.00 in 0.10 in 2.90 in (1982)
Month to date snowfall 0.0 0.4  
Since 1 July snowfall T 0.4  
Since 1 September snowfall 0.0 0.4  
Snow Depth 0.00 in    
Sea Level Pressure  
Sea Level Pressure 30.02 in    
Wind  
Wind Speed 8 mph (South)    
Max Wind Speed 15 mph    
Max Gust Speed 20 mph    
Visibility 10 miles    
Events      
T = Trace of Precipitation, MM = Missing Value Source: NWS Daily Summary

Daily Weather History Graph

Daily Weather History Graph

Search for Another Location

Airport or City:

Trip Planner

Search our weather history database for the weather conditions in past years. The results will help you decide how hot, cold, wet, or windy it might be!

Date:

Astronomy

Sep. 29, 2011 Rise Set
Actual Time 6:33 AM PDT 6:25 PM PDT
Civil Twilight 6:06 AM PDT 6:52 PM PDT
Nautical Twilight 5:35 AM PDT 7:23 PM PDT
Astronomical Twilight 5:04 AM PDT 7:54 PM PDT
Moon 9:21 AM PDT (9/29) 7:42 PM PDT (9/29)
Length of Visible Light 12h 45m
Length of Day
11h 52m
Waxing Crescent, 8% of the Moon is Illuminated
Sep 29
Waxing Crescent
Oct 3
First Quarter
Oct 11
Full
Oct 19
Last Quarter
Oct 26
New

Hourly Weather History & Observations

Time (PDT) Temp. Windchill Dew Point Humidity Pressure Visibility Wind Dir Wind Speed Gust Speed Precip Events Conditions
12:53 AM 48.0 °F - 28.9 °F 48% 30.02 in 10.0 mi South 11.5 mph - N/A   Clear
1:53 AM 46.9 °F - 28.9 °F 50% 30.03 in 10.0 mi South 8.1 mph - N/A   Clear
2:53 AM 45.0 °F 41.8 °F 28.0 °F 52% 30.03 in 10.0 mi SSW 5.8 mph - N/A   Clear
3:53 AM 44.1 °F 39.0 °F 28.0 °F 53% 30.04 in 10.0 mi South 9.2 mph - N/A   Clear
4:53 AM 45.0 °F 40.1 °F 28.0 °F 52% 30.05 in 10.0 mi South 9.2 mph - N/A   Clear
5:53 AM 41.0 °F 35.2 °F 28.0 °F 60% 30.08 in 10.0 mi South 9.2 mph - N/A   Clear
6:53 AM 42.1 °F 35.7 °F 27.0 °F 55% 30.14 in 10.0 mi South 11.5 mph - N/A   Clear
7:53 AM 50.0 °F - 30.0 °F 46% 30.14 in 10.0 mi South 10.4 mph - N/A   Clear
8:53 AM 60.1 °F - 34.0 °F 38% 30.12 in 10.0 mi South 4.6 mph - N/A   Clear
9:53 AM 69.1 °F - 32.0 °F 25% 30.08 in 10.0 mi Calm Calm - N/A   Clear
10:53 AM 75.0 °F - 32.0 °F 21% 30.05 in 10.0 mi Calm Calm - N/A   Clear
11:53 AM 82.0 °F - 30.0 °F 15% 30.02 in 10.0 mi Calm Calm - N/A   Clear
12:53 PM 82.9 °F - 27.0 °F 13% 29.99 in 10.0 mi East 3.5 mph - N/A   Clear
1:53 PM 84.0 °F - 28.0 °F 13% 29.97 in 10.0 mi South 9.2 mph - N/A   Clear
2:53 PM 84.9 °F - 27.0 °F 12% 29.96 in 10.0 mi Calm Calm - N/A   Clear
3:53 PM 84.0 °F - 27.0 °F 13% 29.95 in 10.0 mi Variable 5.8 mph - N/A   Clear
4:53 PM 82.9 °F - 28.0 °F 14% 29.94 in 10.0 mi South 6.9 mph - N/A   Clear
5:53 PM 79.0 °F - 32.0 °F 18% 29.97 in 10.0 mi South 6.9 mph - N/A   Clear
6:53 PM 66.9 °F - 33.1 °F 28% 30.01 in 10.0 mi SSE 11.5 mph - N/A   Clear
7:53 PM 62.1 °F - 30.9 °F 31% 30.03 in 10.0 mi South 9.2 mph - N/A   Clear
8:53 PM 61.0 °F - 30.0 °F 31% 30.00 in 10.0 mi South 10.4 mph - N/A   Clear
9:53 PM 57.9 °F - 28.9 °F 33% 29.99 in 10.0 mi South 13.8 mph - N/A   Clear
10:53 PM 52.0 °F - 28.9 °F 41% 29.99 in 10.0 mi South 11.5 mph - N/A   Clear
11:53 PM 51.1 °F - 30.0 °F 44% 29.97 in 10.0 mi South 10.4 mph - N/A   Clear